EZS59GQ LFKJ-LSGG

Flight info

Callsign EZS59GQ
Flight time N/A
Altitude 34000
Route LONSU M622 PIGOS DCT BARSO DCT IRMAR DCT KINES
Aircraft A320/M-SDE3FGHIRWY/LB1

Departure

Time 2026-04-09 11:44
Airport Ajaccio Napoléon Bonaparte airport (LFKJ)

Arrival

Time N/A
Airport Geneva International Airport (LSGG)
Time Latitude Longitude Altitude Speed Heading
2026-04-09 11:13 41.91900 8.79543 26 ft 0 kts 339°
2026-04-09 11:39 41.91905 8.79548 26 ft 1 kts 35°
2026-04-09 11:39 41.91904 8.79582 26 ft 7 kts 96°
2026-04-09 11:39 41.91954 8.79642 31 ft 14 kts 24°
2026-04-09 11:40 41.92053 8.79704 29 ft 16 kts 25°
2026-04-09 11:40 41.92151 8.79765 30 ft 16 kts 25°
2026-04-09 11:40 41.92250 8.79827 28 ft 15 kts 25°
2026-04-09 11:40 41.92348 8.79888 30 ft 18 kts 25°
2026-04-09 11:41 41.92462 8.79959 27 ft 17 kts 25°
2026-04-09 11:41 41.92568 8.80025 28 ft 16 kts 25°
2026-04-09 11:41 41.92668 8.80086 25 ft 16 kts 24°
2026-04-09 11:41 41.92759 8.80150 26 ft 14 kts 34°
2026-04-09 11:42 41.92827 8.80224 27 ft 12 kts 44°
2026-04-09 11:42 41.92884 8.80299 28 ft 11 kts 45°
2026-04-09 11:42 41.92927 8.80360 29 ft 7 kts 46°
2026-04-09 11:42 41.92955 8.80402 31 ft 5 kts 54°
2026-04-09 11:43 41.92957 8.80497 32 ft 16 kts 108°
2026-04-09 11:43 41.92920 8.80572 31 ft 9 kts 182°
2026-04-09 11:43 41.92898 8.80562 31 ft 0 kts 204°
2026-04-09 11:44 41.92812 8.80509 30 ft 44 kts 205°
2026-04-09 11:44 41.92294 8.80185 23 ft 116 kts 205°
2026-04-09 11:44 41.91427 8.79620 247 ft 148 kts 207°
2026-04-09 11:44 41.90544 8.78896 913 ft 152 kts 231°
2026-04-09 11:45 41.89992 8.77648 1530 ft 163 kts 239°
2026-04-09 11:45 41.89391 8.76254 1980 ft 182 kts 238°
2026-04-09 11:45 41.88703 8.74711 2361 ft 205 kts 239°
2026-04-09 11:45 41.87925 8.72959 2783 ft 231 kts 240°
2026-04-09 11:46 41.87066 8.71015 3395 ft 251 kts 240°
2026-04-09 11:46 41.86169 8.68960 4300 ft 258 kts 242°
2026-04-09 11:46 41.85250 8.66868 5286 ft 262 kts 242°
2026-04-09 11:46 41.84342 8.64734 6246 ft 265 kts 249°
2026-04-09 11:47 41.84007 8.63185 6837 ft 265 kts 264°
2026-04-09 11:47 41.84133 8.60758 7707 ft 268 kts 288°
2026-04-09 11:47 41.85030 8.58566 8598 ft 273 kts 311°
2026-04-09 11:47 41.86573 8.57065 9478 ft 280 kts 334°
2026-04-09 11:48 41.88370 8.56010 10360 ft 284 kts 335°
2026-04-09 11:48 41.90205 8.54940 11037 ft 296 kts 335°
2026-04-09 11:48 41.91514 8.54172 11250 ft 312 kts 335°
2026-04-09 11:48 41.93272 8.53137 11718 ft 324 kts 335°
2026-04-09 11:49 41.94681 8.52305 12143 ft 330 kts 335°
2026-04-09 11:49 41.96801 8.51051 12912 ft 335 kts 335°
2026-04-09 11:49 41.98917 8.49794 13704 ft 339 kts 335°
2026-04-09 11:49 42.01088 8.48505 14426 ft 343 kts 335°
2026-04-09 11:50 42.03278 8.47204 15162 ft 345 kts 335°
2026-04-09 11:50 42.05485 8.45892 15890 ft 348 kts 336°
2026-04-09 11:50 42.07704 8.44569 16626 ft 350 kts 336°
2026-04-09 11:50 42.09942 8.43236 17355 ft 353 kts 336°
2026-04-09 11:51 42.12192 8.41895 18104 ft 355 kts 336°
2026-04-09 11:51 42.14456 8.40545 18775 ft 357 kts 336°
2026-04-09 11:51 42.16735 8.39185 19374 ft 360 kts 335°
2026-04-09 11:51 42.19031 8.37811 19972 ft 363 kts 335°
2026-04-09 11:52 42.21347 8.36424 20563 ft 365 kts 335°
2026-04-09 11:52 42.23681 8.35026 21139 ft 368 kts 335°
2026-04-09 11:52 42.26035 8.33618 21694 ft 372 kts 335°
2026-04-09 11:52 42.28413 8.32195 22207 ft 376 kts 335°
2026-04-09 11:53 42.30816 8.30757 22743 ft 379 kts 335°
2026-04-09 11:53 42.33238 8.29304 23308 ft 382 kts 335°
2026-04-09 11:53 42.35677 8.27841 23836 ft 384 kts 334°
2026-04-09 11:53 42.38131 8.26366 24285 ft 387 kts 334°
2026-04-09 11:54 42.40599 8.24881 24746 ft 389 kts 334°
2026-04-09 11:54 42.43079 8.23386 25202 ft 391 kts 334°
2026-04-09 11:54 42.45567 8.21882 25645 ft 393 kts 334°
2026-04-09 11:54 42.48070 8.20370 26089 ft 395 kts 334°
2026-04-09 11:55 42.50583 8.18854 26536 ft 397 kts 334°
2026-04-09 11:55 42.53113 8.17324 26967 ft 399 kts 334°
2026-04-09 11:55 42.55651 8.15787 27385 ft 401 kts 334°
2026-04-09 11:55 42.58203 8.14240 27810 ft 403 kts 333°
2026-04-09 11:56 42.60736 8.12706 28222 ft 405 kts 333°
2026-04-09 11:56 42.63349 8.11121 28648 ft 407 kts 333°
2026-04-09 11:56 42.65939 8.09546 29051 ft 409 kts 333°
2026-04-09 11:56 42.68544 8.07959 29452 ft 411 kts 333°
2026-04-09 11:57 42.71163 8.06366 29840 ft 413 kts 333°
2026-04-09 11:57 42.73792 8.04769 30220 ft 415 kts 333°
2026-04-09 11:57 42.76438 8.03161 30508 ft 418 kts 333°
2026-04-09 11:57 42.79078 8.01482 30778 ft 420 kts 331°
2026-04-09 11:58 42.81670 7.99641 31071 ft 421 kts 329°
2026-04-09 11:58 42.84196 7.97712 31357 ft 423 kts 328°
2026-04-09 11:58 42.86746 7.95699 31638 ft 424 kts 327°
2026-04-09 11:58 42.89294 7.93675 32014 ft 424 kts 327°
2026-04-09 11:59 42.91842 7.91670 32433 ft 422 kts 328°
2026-04-09 11:59 42.94396 7.89691 32844 ft 422 kts 328°
2026-04-09 11:59 42.96954 7.87738 33246 ft 421 kts 328°
2026-04-09 11:59 42.99513 7.85796 33636 ft 420 kts 328°
2026-04-09 12:00 43.02069 7.83859 34016 ft 420 kts 328°
2026-04-09 12:00 43.04619 7.81924 34118 ft 415 kts 328°
2026-04-09 12:00 43.09583 7.78137 34127 ft 405 kts 328°
2026-04-09 12:01 43.14475 7.74363 34128 ft 403 kts 328°
2026-04-09 12:01 43.19353 7.70571 34126 ft 403 kts 328°
2026-04-09 12:02 43.24228 7.66780 34127 ft 403 kts 328°
2026-04-09 12:02 43.29106 7.62997 34124 ft 403 kts 328°
2026-04-09 12:03 43.33981 7.59216 34120 ft 402 kts 328°
2026-04-09 12:03 43.38854 7.55425 34112 ft 403 kts 328°
2026-04-09 12:04 43.42902 7.52260 34104 ft 403 kts 328°
2026-04-09 12:04 43.46355 7.49555 34103 ft 403 kts 328°
2026-04-09 12:05 43.51193 7.45764 34103 ft 403 kts 328°
2026-04-09 12:05 43.56068 7.41951 34102 ft 403 kts 328°
2026-04-09 12:06 43.60942 7.38135 34103 ft 403 kts 328°
2026-04-09 12:06 43.65762 7.34103 34100 ft 402 kts 324°
2026-04-09 12:07 43.70396 7.29784 34097 ft 402 kts 323°
2026-04-09 12:07 43.74932 7.25510 34096 ft 402 kts 324°
2026-04-09 12:08 43.79582 7.21208 34098 ft 402 kts 324°
2026-04-09 12:08 43.84247 7.16929 34103 ft 402 kts 324°
2026-04-09 12:09 43.88915 7.12643 34094 ft 402 kts 324°
2026-04-09 12:09 43.91217 7.10524 34092 ft 402 kts 324°
2026-04-09 12:10 43.94049 7.07950 34096 ft 402 kts 324°
2026-04-09 12:10 43.98706 7.03649 34090 ft 402 kts 324°
2026-04-09 12:11 44.02560 7.00042 34100 ft 402 kts 324°
2026-04-09 12:11 44.07201 6.95703 34085 ft 402 kts 324°
2026-04-09 12:12 44.11870 6.91408 34078 ft 403 kts 328°
2026-04-09 12:12 44.17130 6.88666 34074 ft 409 kts 347°
2026-04-09 12:13 44.21960 6.87881 34083 ft 411 kts 351°
2026-04-09 12:13 44.27658 6.87035 34081 ft 412 kts 350°
2026-04-09 12:14 44.33358 6.86170 34084 ft 412 kts 350°
2026-04-09 12:14 44.39069 6.85301 34082 ft 413 kts 350°
2026-04-09 12:15 44.44778 6.84435 34091 ft 413 kts 351°
2026-04-09 12:15 44.48310 6.83899 34092 ft 413 kts 351°
2026-04-09 12:16 44.52117 6.83317 34090 ft 414 kts 351°
2026-04-09 12:16 44.54975 6.82882 34076 ft 414 kts 351°